Jaakko Taylor

Recruteur en chef - KuPS
3 Déc 2028
Dimanche
Processus

Personnalité

Adaptabilité (7) Ambition (1) Controverse (16) Loyauté (9) Pression (12) Professionnalisme (19) Sportivité (15) Tempérament (13)

Profil

Style d'entraînement Démocratique
Diplôme Continental Pro
Détermination 10
Gestion des joueurs 9
Motivation 10
Discipline 7
Satisfaction professionnelle
86%
Fatigue
0%
Rôle Recruteur en chef
Salaire 32.6K p/s
Contrat 14.03.2029

Performance

Comportement Bon
Efficacité de l'entraînement
35%
Développement des joueurs
30%
Prévention des blessures
40%
Mise en place tactique
45%

Événements récents

A participé à une réunion de recrutement maintenant
A participé à une réunion de recrutement maintenant
A recommandé une cible de transfert maintenant
A recommandé une cible de transfert maintenant
A recommandé une cible de transfert maintenant
A évalué un joueur maintenant
A évalué un joueur maintenant
A évalué un joueur 7j

Suivi en cours

83
Joueur Club Statut Capacité Confiance Observé Dernière observation Dernier vote
Alexander Díaz Deportivo Riestra Actif 104 / 111 40% 1 01.12.2028 -
Agustín Colazo Unión de Santa Fe Actif 134 / 123 40% 1 01.12.2028 -
Tobías Leiva Estudiantes Actif 139 / 126 40% 2 30.11.2028 -
Agustín Morales Estudiantes Actif 106 / 102 40% 2 30.11.2028 -
Luca Langoni Columbus Crew Actif 139 / 146 40% 2 29.11.2028 -
Antonio Napolitano Agropecuario Argentino Actif 115 / 99 40% 1 29.11.2028 -
Pablo Cardona Cortulua Actif 105 / 122 40% 1 28.11.2028 -
John Córdoba Millonarios Actif 141 / 106 40% 1 28.11.2028 -
Matías Bergara Nueva Chicago Actif 106 / 104 40% 1 25.11.2028 -
Federico Versaci Talleres Actif 137 / 118 40% 2 22.11.2028 -
Juan Sebastián Herrera Deportivo La Guaira Actif 98 / 101 40% 1 22.11.2028 -
Tomás Pozzo Godoy Cruz Actif 120 / 126 40% 1 21.11.2028 -
Juan Velázquez Belgrano Actif 111 / 114 40% 1 19.11.2028 -
Antonio Galeano Remo Stars Actif 133 / 128 40% 1 19.11.2028 -
Alex Luna Instituto Actif 142 / 135 40% 3 17.11.2028 -
Alcides Benítez Belgrano Actif 135 / 114 40% 1 17.11.2028 -
Facundo Lencioni Gimnasia y Esgrima Actif 106 / 109 40% 1 15.11.2028 -
Gerónimo Tomasetti Temperley Actif 123 / 100 40% 1 15.11.2028 -
Santiago Sala Güemes Actif 97 / 125 40% 3 14.11.2028 -
Yackson Rivas Deportivo La Guaira Actif 112 / 106 40% 1 13.11.2028 -
Yuber Quiñónes Patriotas Actif 117 / 127 40% 1 13.11.2028 -
Gastón Moreyra Almirante Brown Actif 129 / 109 40% 2 12.11.2028 -
Yeferson Rodallega Envigado Actif 109 / 120 40% 2 12.11.2028 -
Ruben Ramos LA Galaxy Actif 107 / 96 40% 1 11.11.2028 -
Joaquín Varela Albion Actif 86 / 85 40% 1 11.11.2028 -
Johan Campaña Patriotas Actif 115 / 116 40% 3 10.11.2028 -
Augusto Berrondo Tristán Suárez Actif 112 / 95 40% 1 10.11.2028 -
Diego Gaitán Maipú Actif 92 / 121 40% 2 08.11.2028 -
Daniel Barrea Godoy Cruz Actif 121 / 121 40% 4 07.11.2028 -
Camilo Machado Madryn Actif 107 / 101 40% 1 07.11.2028 -
Francisco Gerometta Godoy Cruz Actif 139 / 114 40% 1 07.11.2028 -
Marcio Gómez Racing Actif 113 / 107 40% 1 07.11.2028 -
Fernando Herrera Pafos Négociation 96 / 96 66% 1 16.07.2028 Approuver
Louie Barry Gillingham Actif 128 / 129 68% 1 16.07.2028 Approuver
Daniel Kyerewaa Reading Actif 125 / 135 40% 1 14.07.2028 -
Calvin Ramsay Bristol Rovers Actif 114 / 122 40% 1 14.07.2028 -
Malik Mothersille Stockport County Actif 120 / 116 40% 1 12.07.2028 -
Ethan Williams Peterborough United Actif 127 / 111 40% 1 12.07.2028 -
Johnly Yfeko Exeter City Actif 130 / 109 40% 1 11.07.2028 -
Oscar Schwartau Norwich City Actif 147 / 144 40% 1 11.07.2028 -
Ar'jany Martha Rotherham United Actif 109 / 104 40% 2 09.07.2028 -
Tristan Crama Wycombe Wanderers Actif 109 / 137 40% 1 06.07.2028 -
Tim Iroegbunam Peterborough United Actif 121 / 153 40% 1 05.07.2028 -
Olaf Kobacki Sheffield Wednesday Actif 115 / 117 40% 1 05.07.2028 -
Idris El Mizouni Leyton Orient Actif 135 / 121 40% 1 04.07.2028 -
Kyreece Lisbie Colchester United Actif 108 / 107 40% 1 03.07.2028 -
Alejandro Rincon Llaneros Actif 102 / 102 66% 1 01.02.2028 Approuver
Dato Mchedlidze Tskhinvali Négociation 101 / 104 90% 1 01.02.2028 -
Emanuele Schimmenti Potenza Perdu 114 / 115 66% 1 01.02.2028 -
Martti Haukioja VPS Actif 94 / 107 41% 1 01.02.2028 -
Joaquín Valiente FC Dallas Actif 95 / 104 40% 2 31.01.2028 -
Patricio Moyano Defensores Actif 113 / 125 40% 3 04.01.2028 -
Manuel Duarte Barracas Central Actif 118 / 106 40% 1 03.01.2028 -
Mario Sanabria Chacarita Juniors Actif 99 / 105 40% 1 02.01.2028 -
Santiago Martínez Godoy Cruz Actif 122 / 127 40% 1 29.12.2027 -
Pedro Souto Temperley Actif 99 / 101 40% 3 28.12.2027 -
Matías Rosales Sarmiento Actif 126 / 118 40% 2 27.12.2027 -
Franco Ayunta Temperley Actif 94 / 117 40% 1 24.12.2027 -
Manuel Mónaco Sarmiento Actif 125 / 117 40% 2 23.12.2027 -
Yegor Kortsov Dinamo Brest Actif 89 / 112 40% 1 21.12.2027 -
Ramón González Almirante Brown Actif 102 / 128 40% 1 20.12.2027 -
Matías Machado Racing Actif 98 / 106 40% 1 20.12.2027 -
Tobías Macies Almagro Actif 83 / 106 40% 1 19.12.2027 -
Matías Fernández Independiente Rivadavia Actif 101 / 124 40% 1 13.12.2027 -
Gino Olguín Ferro Carril Oeste Actif 89 / 119 40% 1 13.12.2027 -
Facundo Taborda Racing Actif 117 / 122 40% 2 10.12.2027 -
Franco Vedoya Central Norte Actif 107 / 118 40% 1 10.12.2027 -
José Barreto Quilmes Actif 133 / 105 40% 1 07.12.2027 -
Matías Arias Vélez Actif 124 / 121 40% 1 06.12.2027 -
Juan David Rueda Alianza Petrolera Actif 109 / 123 40% 2 04.12.2027 -
Iñaki Larthirigoyen San Telmo Actif 124 / 117 40% 3 27.11.2027 -
Nicolás Mosca Atlanta Actif 130 / 109 40% 1 24.11.2027 -
Federico Bisanz Atlanta Actif 118 / 123 40% 1 17.11.2027 -
Ismael Cortez Gimnasia y Esgrima Actif 94 / 101 40% 1 15.11.2027 -
Santiago Kubiszyn Morón Actif 133 / 128 40% 1 13.11.2027 -
Enzo González Defensores Actif 86 / 118 40% 2 11.11.2027 -
Gustavo Viera Cerro Largo Actif 109 / 111 40% 1 11.11.2027 -
Martín Campos Ferro Carril Oeste Actif 141 / 113 40% 1 07.11.2027 -
Alejo Dramisino Atlanta Actif 140 / 111 40% 1 05.11.2027 -
Jefry Zapata Aldosivi Actif 110 / 118 40% 1 04.11.2027 -
Danila Bulgakov SJK Actif 100 / 99 41% 1 29.03.2027 -
Seth Saarinen Inter Turku Actif 92 / 86 41% 1 15.02.2027 -
Yiandro Raap Ilves Actif 82 / 95 41% 1 10.08.2026 Plus d'infos